Terminal Aerodrome Forecast
Issued by NWS Chicago, IL

Home | Current Version | Previous Version | Text Only | Print | Product List | Glossary Off
Versions: 1 2 3 4 5 6 7 8 9 10 11 12 13 14 15 16 17 18 19 20 21 22 23 24 25 26 27 28 29 30 31 32

000
FTUS43 KLOT 182300
TAFRFD
TAF
KRFD 182320Z 1900/1924 VRB05KT P6SM SKC
     FM191630 16012KT P6SM FEW350=

USA.gov is the U.S. government's official web portal to all federal, state and local government web resources and services.